Year,Month,Day,Hour,Minute,Value (Times are PST for temperature in C)
2011,09,23,07,49,13.80
2011,09,23,07,50,13.90
2011,09,23,07,51,13.90
2011,09,23,07,52,14.00
2011,09,23,07,53,14.10
2011,09,23,07,54,14.20
2011,09,23,07,55,14.20
2011,09,23,07,56,14.30
2011,09,23,07,57,14.30
2011,09,23,07,58,14.40
2011,09,23,07,59,14.40
2011,09,23,08,00,14.40
2011,09,23,08,01,14.50
2011,09,23,08,02,14.50
2011,09,23,08,03,14.50
2011,09,23,08,04,14.50
2011,09,23,08,05,14.60
2011,09,23,08,06,14.70
2011,09,23,08,07,14.70
2011,09,23,08,08,14.80
2011,09,23,08,09,14.80
2011,09,23,08,10,14.80
2011,09,23,08,11,14.90
2011,09,23,08,12,14.90
2011,09,23,08,13,14.90
2011,09,23,08,14,14.90
2011,09,23,08,15,14.90
2011,09,23,08,16,14.90
2011,09,23,08,17,14.90
2011,09,23,08,18,14.90
2011,09,23,08,19,14.90
2011,09,23,08,20,14.90
2011,09,23,08,21,15.00
2011,09,23,08,22,15.00
2011,09,23,08,23,15.00
2011,09,23,08,24,15.10
2011,09,23,08,25,15.10
2011,09,23,08,26,15.10
2011,09,23,08,27,15.20
2011,09,23,08,28,15.20
2011,09,23,08,29,15.30
2011,09,23,08,30,15.30
2011,09,23,08,31,15.30
2011,09,23,08,32,15.30
2011,09,23,08,33,15.30
2011,09,23,08,34,15.40
2011,09,23,08,35,15.40
2011,09,23,08,36,15.40
2011,09,23,08,37,15.50
2011,09,23,08,38,15.50
2011,09,23,08,39,15.50
2011,09,23,08,40,15.50
2011,09,23,08,41,15.60
2011,09,23,08,42,15.60
2011,09,23,08,43,15.60
2011,09,23,08,44,15.60
2011,09,23,08,45,15.70
2011,09,23,08,46,15.70
2011,09,23,08,47,15.70
2011,09,23,08,48,15.70
2011,09,23,08,49,15.70
2011,09,23,08,50,15.80
2011,09,23,08,51,15.80
2011,09,23,08,52,15.80
2011,09,23,08,53,15.80
2011,09,23,08,54,15.80
2011,09,23,08,55,15.80
2011,09,23,08,56,15.80
2011,09,23,08,57,15.80
2011,09,23,08,58,15.80
2011,09,23,08,59,15.80
2011,09,23,09,00,15.80
2011,09,23,09,01,15.80
2011,09,23,09,02,15.80
2011,09,23,09,03,15.90
2011,09,23,09,04,15.90
2011,09,23,09,05,15.90
2011,09,23,09,06,15.90
2011,09,23,09,07,15.90
2011,09,23,09,08,15.90
2011,09,23,09,09,15.80
2011,09,23,09,10,15.80
2011,09,23,09,11,15.70
2011,09,23,09,12,15.60
2011,09,23,09,13,15.60
2011,09,23,09,14,15.50
2011,09,23,09,15,15.40
2011,09,23,09,16,15.40
2011,09,23,09,17,15.40
2011,09,23,09,18,15.30
2011,09,23,09,19,15.30
2011,09,23,09,20,15.30
2011,09,23,09,21,15.30
2011,09,23,09,22,15.30
2011,09,23,09,23,15.30
2011,09,23,09,24,15.30
2011,09,23,09,25,15.30
2011,09,23,09,26,15.30
2011,09,23,09,27,15.30
2011,09,23,09,28,15.30
2011,09,23,09,29,15.30
2011,09,23,09,30,15.30
2011,09,23,09,31,15.30
2011,09,23,09,32,15.30
2011,09,23,09,33,15.30
2011,09,23,09,34,15.30
2011,09,23,09,35,15.30
2011,09,23,09,36,15.20
2011,09,23,09,37,15.20
2011,09,23,09,38,15.20
2011,09,23,09,39,15.20
2011,09,23,09,40,15.20
2011,09,23,09,41,15.30
2011,09,23,09,42,15.30
2011,09,23,09,43,15.20
2011,09,23,09,44,15.20
2011,09,23,09,45,15.20
2011,09,23,09,46,15.20
2011,09,23,09,47,15.20
2011,09,23,09,48,15.20
2011,09,23,09,49,15.30
2011,09,23,09,50,15.30
2011,09,23,09,51,15.30
2011,09,23,09,52,15.30
2011,09,23,09,53,15.30
2011,09,23,09,54,15.30
2011,09,23,09,55,15.30
2011,09,23,09,56,15.30
2011,09,23,09,57,15.30
2011,09,23,09,58,15.30
2011,09,23,09,59,15.30
2011,09,23,10,00,15.40
2011,09,23,10,01,15.40
2011,09,23,10,02,15.40
2011,09,23,10,03,15.50
2011,09,23,10,04,15.50
2011,09,23,10,05,15.60
2011,09,23,10,06,15.60
2011,09,23,10,07,15.70
2011,09,23,10,08,15.80
2011,09,23,10,09,15.80
2011,09,23,10,10,15.80
2011,09,23,10,11,15.90
2011,09,23,10,12,15.90
2011,09,23,10,13,16.10
2011,09,23,10,14,16.10
2011,09,23,10,15,16.10
2011,09,23,10,16,16.10
2011,09,23,10,17,16.10
2011,09,23,10,18,16.20
2011,09,23,10,19,16.20
2011,09,23,10,20,16.20
2011,09,23,10,21,16.30
2011,09,23,10,22,16.30
2011,09,23,10,23,16.30
2011,09,23,10,24,16.30
2011,09,23,10,25,16.40
2011,09,23,10,26,16.40
2011,09,23,10,27,16.40
2011,09,23,10,28,16.40
2011,09,23,10,29,16.50
2011,09,23,10,30,16.60
2011,09,23,10,31,16.60
2011,09,23,10,32,16.70
2011,09,23,10,33,16.70
2011,09,23,10,34,16.70
2011,09,23,10,35,16.70
2011,09,23,10,36,16.70
2011,09,23,10,37,16.70
2011,09,23,10,38,16.70
2011,09,23,10,39,16.70
2011,09,23,10,40,16.70
2011,09,23,10,41,16.70
2011,09,23,10,42,16.70
2011,09,23,10,43,16.70
2011,09,23,10,44,16.70
2011,09,23,10,45,16.80
2011,09,23,10,46,16.80
2011,09,23,10,47,16.90
2011,09,23,10,48,16.90
2011,09,23,10,49,17.00
2011,09,23,10,50,17.00
2011,09,23,10,51,17.10
2011,09,23,10,52,17.10
2011,09,23,10,53,17.20
2011,09,23,10,54,17.30
2011,09,23,10,55,17.30
2011,09,23,10,56,17.30
2011,09,23,10,57,17.30
2011,09,23,10,58,17.40
2011,09,23,10,59,17.50
2011,09,23,11,00,17.50
2011,09,23,11,01,17.50
2011,09,23,11,02,17.60
2011,09,23,11,03,17.60
2011,09,23,11,04,17.70
2011,09,23,11,05,17.70
2011,09,23,11,06,17.80
2011,09,23,11,07,17.80
2011,09,23,11,08,17.80
2011,09,23,11,09,17.90
2011,09,23,11,10,17.90
2011,09,23,11,11,17.90
2011,09,23,11,12,17.90
2011,09,23,11,13,17.90
2011,09,23,11,14,17.90
2011,09,23,11,15,18.00
2011,09,23,11,16,18.10
2011,09,23,11,17,18.20
2011,09,23,11,18,18.20
2011,09,23,11,19,18.20
2011,09,23,11,20,18.20
2011,09,23,11,21,18.30
2011,09,23,11,22,18.30
2011,09,23,11,23,18.40
2011,09,23,11,24,18.50
2011,09,23,11,25,18.50
2011,09,23,11,26,18.50
2011,09,23,11,27,18.60
2011,09,23,11,28,18.70
2011,09,23,11,29,18.70
2011,09,23,11,30,18.80
2011,09,23,11,31,18.80
2011,09,23,11,32,18.90
2011,09,23,11,33,18.90
2011,09,23,11,34,18.90
2011,09,23,11,35,18.90
2011,09,23,11,36,19.00
2011,09,23,11,37,19.10
2011,09,23,11,38,19.10
2011,09,23,11,39,19.10
2011,09,23,11,40,19.20
2011,09,23,11,41,19.20
2011,09,23,11,42,19.20
2011,09,23,11,43,19.20
2011,09,23,11,44,19.30
2011,09,23,11,45,19.30
2011,09,23,11,46,19.30
2011,09,23,11,47,19.40
2011,09,23,11,48,19.40
2011,09,23,11,49,19.40
2011,09,23,11,50,19.50
2011,09,23,11,51,19.50
2011,09,23,11,52,19.50
2011,09,23,11,53,19.50
2011,09,23,11,54,19.50
2011,09,23,11,55,19.50
2011,09,23,11,56,19.60
2011,09,23,11,57,19.60
2011,09,23,11,58,19.60
2011,09,23,11,59,19.70
2011,09,23,12,00,19.70
2011,09,23,12,01,19.80
2011,09,23,12,02,19.80
2011,09,23,12,03,19.90
2011,09,23,12,04,19.90
2011,09,23,12,05,19.90
2011,09,23,12,06,19.90
2011,09,23,12,07,19.90
2011,09,23,12,08,19.90
2011,09,23,12,09,19.90
2011,09,23,12,10,19.90
2011,09,23,12,11,20.00
2011,09,23,12,12,20.10
2011,09,23,12,13,20.10
2011,09,23,12,14,20.10
2011,09,23,12,15,20.10
2011,09,23,12,16,20.10
2011,09,23,12,17,20.20
2011,09,23,12,18,20.20
2011,09,23,12,19,20.20
2011,09,23,12,20,20.20
2011,09,23,12,21,20.20
2011,09,23,12,22,20.20
2011,09,23,12,23,20.30
2011,09,23,12,24,20.30
2011,09,23,12,25,20.30
2011,09,23,12,26,20.30
2011,09,23,12,27,20.20
2011,09,23,12,28,20.10
2011,09,23,12,29,20.00
2011,09,23,12,30,19.80
2011,09,23,12,31,19.70
2011,09,23,12,32,19.60
2011,09,23,12,33,19.50
2011,09,23,12,34,19.40
2011,09,23,12,35,19.30
2011,09,23,12,36,19.20
2011,09,23,12,37,19.10
2011,09,23,12,38,19.10
2011,09,23,12,39,19.10
2011,09,23,12,40,19.10
2011,09,23,12,41,19.10
2011,09,23,12,42,19.20
2011,09,23,12,43,19.20
2011,09,23,12,44,19.30
2011,09,23,12,45,19.40
2011,09,23,12,46,19.50
2011,09,23,12,47,19.60
2011,09,23,12,48,19.60
2011,09,23,12,49,19.70
2011,09,23,12,50,19.70
2011,09,23,12,51,19.70
2011,09,23,12,52,19.70
2011,09,23,12,53,19.70
2011,09,23,12,54,19.80
2011,09,23,12,55,19.90
2011,09,23,12,56,19.90
2011,09,23,12,57,20.00
2011,09,23,12,58,20.20
2011,09,23,12,59,20.20
2011,09,23,13,00,20.20
2011,09,23,13,01,20.20
2011,09,23,13,02,20.20
2011,09,23,13,03,20.20
2011,09,23,13,04,20.20
2011,09,23,13,05,20.20
2011,09,23,13,06,20.20
2011,09,23,13,07,20.20
2011,09,23,13,08,20.20
2011,09,23,13,09,20.20
2011,09,23,13,10,20.20
2011,09,23,13,11,20.20
2011,09,23,13,12,20.20
2011,09,23,13,13,20.20
2011,09,23,13,14,20.20
2011,09,23,13,15,20.30
2011,09,23,13,16,20.30
2011,09,23,13,17,20.20
2011,09,23,13,18,20.20
2011,09,23,13,19,20.20
2011,09,23,13,20,20.20
2011,09,23,13,21,20.20
2011,09,23,13,22,20.30
2011,09,23,13,23,20.40
2011,09,23,13,24,20.50
2011,09,23,13,25,20.60
2011,09,23,13,26,20.60
2011,09,23,13,27,20.70
2011,09,23,13,28,20.70
2011,09,23,13,29,20.70
2011,09,23,13,30,20.70
2011,09,23,13,31,20.70
2011,09,23,13,32,20.70
2011,09,23,13,33,20.80
2011,09,23,13,34,20.80
2011,09,23,13,35,20.90
2011,09,23,13,36,21.00
2011,09,23,13,37,21.00
2011,09,23,13,38,21.10
2011,09,23,13,39,21.20
2011,09,23,13,40,21.30
2011,09,23,13,41,21.30
2011,09,23,13,42,21.30
2011,09,23,13,43,21.30
2011,09,23,13,44,21.30
2011,09,23,13,45,21.30
2011,09,23,13,46,21.40
2011,09,23,13,47,21.50
2011,09,23,13,48,21.60
2011,09,23,13,49,21.60
2011,09,23,13,50,21.70
2011,09,23,13,51,21.80
2011,09,23,13,52,21.80
2011,09,23,13,53,21.90
2011,09,23,13,54,21.90
2011,09,23,13,55,21.90
2011,09,23,13,56,21.90
2011,09,23,13,57,21.90
2011,09,23,13,58,21.90
2011,09,23,13,59,21.80
2011,09,23,14,00,21.70
2011,09,23,14,01,21.60
2011,09,23,14,02,21.60
2011,09,23,14,03,21.60
2011,09,23,14,04,21.60
2011,09,23,14,05,21.60
2011,09,23,14,06,21.60
2011,09,23,14,07,21.60
2011,09,23,14,08,21.60
2011,09,23,14,09,21.60
2011,09,23,14,10,21.60
2011,09,23,14,11,21.60
2011,09,23,14,12,21.50
2011,09,23,14,13,21.40
2011,09,23,14,14,21.40
2011,09,23,14,15,21.50
2011,09,23,14,16,21.60
2011,09,23,14,17,21.60
2011,09,23,14,18,21.60
2011,09,23,14,19,21.60
2011,09,23,14,20,21.60
2011,09,23,14,21,21.60
2011,09,23,14,22,21.70
2011,09,23,14,23,21.70
2011,09,23,14,24,21.80
2011,09,23,14,25,21.80
2011,09,23,14,26,21.80
2011,09,23,14,27,21.80
2011,09,23,14,28,21.70
2011,09,23,14,29,21.60
2011,09,23,14,30,21.60
2011,09,23,14,31,21.50
2011,09,23,14,32,21.50
2011,09,23,14,33,21.60
2011,09,23,14,34,21.60
2011,09,23,14,35,21.60
2011,09,23,14,36,21.60
2011,09,23,14,37,21.50
2011,09,23,14,38,21.40
2011,09,23,14,39,21.30
2011,09,23,14,40,21.30
2011,09,23,14,41,21.10
2011,09,23,14,42,21.00
2011,09,23,14,43,21.00
2011,09,23,14,44,20.90
2011,09,23,14,45,20.80
2011,09,23,14,46,20.80
2011,09,23,14,47,20.80
2011,09,23,14,48,20.70
2011,09,23,14,49,20.70
2011,09,23,14,50,20.70
2011,09,23,14,51,20.70
2011,09,23,14,52,20.70
2011,09,23,14,53,20.60
2011,09,23,14,54,20.60
2011,09,23,14,55,20.60
2011,09,23,14,56,20.70
2011,09,23,14,57,20.70
2011,09,23,14,58,20.80
2011,09,23,14,59,20.80
2011,09,23,15,00,20.80
2011,09,23,15,01,20.90
2011,09,23,15,02,20.90
2011,09,23,15,03,20.90
2011,09,23,15,04,21.00
2011,09,23,15,05,21.00
2011,09,23,15,06,21.00
2011,09,23,15,07,21.10
2011,09,23,15,08,21.10
2011,09,23,15,09,21.10
2011,09,23,15,10,21.10
2011,09,23,15,11,21.10
2011,09,23,15,12,21.10
2011,09,23,15,13,21.10
2011,09,23,15,14,21.10
2011,09,23,15,15,21.10
2011,09,23,15,16,21.10
2011,09,23,15,17,21.10
2011,09,23,15,18,21.10
2011,09,23,15,19,21.10
2011,09,23,15,20,21.10
2011,09,23,15,21,21.10
2011,09,23,15,22,21.10
2011,09,23,15,23,21.10
2011,09,23,15,24,21.10
2011,09,23,15,25,21.10
2011,09,23,15,26,21.20
2011,09,23,15,27,21.20
2011,09,23,15,28,21.20
2011,09,23,15,29,21.20
2011,09,23,15,30,21.10
2011,09,23,15,31,21.10
2011,09,23,15,32,21.20
2011,09,23,15,33,21.20
2011,09,23,15,34,21.30
2011,09,23,15,35,21.30
2011,09,23,15,36,21.40
2011,09,23,15,37,21.50
2011,09,23,15,38,21.60
2011,09,23,15,39,21.70
2011,09,23,15,40,21.90
2011,09,23,15,41,21.90
2011,09,23,15,42,21.90
2011,09,23,15,43,21.90
2011,09,23,15,44,21.90
2011,09,23,15,45,22.00
2011,09,23,15,46,22.00
2011,09,23,15,47,22.00
2011,09,23,15,48,22.00
2011,09,23,15,49,22.00
2011,09,23,15,50,22.00
2011,09,23,15,51,21.90
2011,09,23,15,52,21.80
2011,09,23,15,53,21.80
2011,09,23,15,54,21.90
2011,09,23,15,55,21.90
2011,09,23,15,56,21.90
2011,09,23,15,57,22.00
2011,09,23,15,58,22.10
2011,09,23,15,59,22.10
2011,09,23,16,00,22.20
2011,09,23,16,01,22.30
2011,09,23,16,02,22.40
2011,09,23,16,03,22.40
2011,09,23,16,04,22.40
2011,09,23,16,05,22.50
2011,09,23,16,06,22.50
2011,09,23,16,07,22.40
2011,09,23,16,08,22.40
2011,09,23,16,09,22.40
2011,09,23,16,10,22.50
2011,09,23,16,11,22.50
2011,09,23,16,12,22.50
2011,09,23,16,13,22.50
2011,09,23,16,14,22.50
2011,09,23,16,15,22.60
2011,09,23,16,16,22.60
2011,09,23,16,17,22.70
2011,09,23,16,18,22.70
2011,09,23,16,19,22.80
2011,09,23,16,20,22.90
2011,09,23,16,21,22.90
2011,09,23,16,22,22.90
2011,09,23,16,23,23.00
2011,09,23,16,24,23.10
2011,09,23,16,25,23.10
2011,09,23,16,26,23.10
2011,09,23,16,27,23.10
2011,09,23,16,28,23.20
2011,09,23,16,29,23.20
2011,09,23,16,30,23.30
2011,09,23,16,31,23.30
2011,09,23,16,32,23.30
2011,09,23,16,33,23.30
2011,09,23,16,34,23.40
2011,09,23,16,35,23.40
2011,09,23,16,36,23.40
2011,09,23,16,37,23.40
2011,09,23,16,38,23.40
2011,09,23,16,39,23.40
2011,09,23,16,40,23.40
2011,09,23,16,41,23.40
2011,09,23,16,42,23.50
2011,09,23,16,43,23.60
2011,09,23,16,44,23.40
2011,09,23,16,45,23.50
2011,09,23,16,46,23.60
2011,09,23,16,47,23.60
2011,09,23,16,48,23.50
2011,09,23,16,49,23.40
2011,09,23,16,50,23.40
2011,09,23,16,51,23.30
2011,09,23,16,52,23.20
2011,09,23,16,53,23.10
2011,09,23,16,54,23.00
2011,09,23,16,55,22.90
2011,09,23,16,56,22.90
2011,09,23,16,57,22.80
2011,09,23,16,58,22.80
2011,09,23,16,59,22.80
2011,09,23,17,00,22.80
2011,09,23,17,01,22.80
2011,09,23,17,02,22.70
2011,09,23,17,03,22.70
2011,09,23,17,04,22.70
2011,09,23,17,05,22.70
2011,09,23,17,06,22.70
2011,09,23,17,07,22.70
2011,09,23,17,08,22.70
2011,09,23,17,09,22.60
2011,09,23,17,10,22.60
2011,09,23,17,11,22.60
2011,09,23,17,12,22.60
2011,09,23,17,13,22.60
2011,09,23,17,14,22.60
2011,09,23,17,15,22.60
2011,09,23,17,16,22.50
2011,09,23,17,17,22.40
2011,09,23,17,18,22.40
2011,09,23,17,19,22.30
2011,09,23,17,20,22.30
2011,09,23,17,21,22.20
2011,09,23,17,22,22.10
2011,09,23,17,23,22.00
2011,09,23,17,24,22.00
2011,09,23,17,25,22.00
2011,09,23,17,26,22.00
2011,09,23,17,27,21.90
2011,09,23,17,28,21.80
2011,09,23,17,29,21.70
2011,09,23,17,30,21.60
2011,09,23,17,31,21.60
2011,09,23,17,32,21.60
2011,09,23,17,33,21.60
2011,09,23,17,34,21.60
2011,09,23,17,35,21.60
2011,09,23,17,36,21.60
2011,09,23,17,37,21.60
2011,09,23,17,38,21.60
2011,09,23,17,39,21.60
2011,09,23,17,40,21.60
2011,09,23,17,41,21.60
2011,09,23,17,42,21.50
2011,09,23,17,43,21.40
2011,09,23,17,44,21.40
2011,09,23,17,45,21.30
2011,09,23,17,46,21.30
2011,09,23,17,47,21.30
2011,09,23,17,48,21.20
2011,09,23,17,49,21.20
2011,09,23,17,50,21.20
2011,09,23,17,51,21.20
2011,09,23,17,52,21.20
2011,09,23,17,53,21.20
2011,09,23,17,54,21.20
2011,09,23,17,55,21.20
2011,09,23,17,56,21.20
2011,09,23,17,57,21.20
2011,09,23,17,58,21.20
2011,09,23,17,59,21.20
